loading
|
Showing default

VSP RF A1, 59135

Orbit data source: Space-Track

VSP RF A1, 59135 is a payload satellite owned by Aerospacelab (BE) in SSO that was launched on Mon, 04 Mar 2024 UTC via an FALCON 9 launch vehicle from the Air Force Western Test Range (AFWTR). Payloads include a variety of satellites, spacecraft, and rockets equipped with specific instruments for various scientific and technological missions. These include communications satellites like Starlink; space stations such as the ISS; scientific satellites like the Hubble; Earth observation satellites from companies like Planet Labs, Umbra, and HawkEye 360; GPS; miniature CubeSats for education and research; and military/defense satellites.

Loading next visibility...
Loading greatness...
VSP RF A1 details
Identifier
59135, 2024-043AP
Orbit
SSO
Last TLE update6 hours ago
Origin
Flag of BEAerospacelab (BE / BEL)
ManufacturerAerospacelab
Mission statusOperational
MissionAmateur Technology
Bus & MotorAEROSP, Unknown motor
Mass~200 kg wet, ~200 kg dry
Launch date (UTC)
2024-03-04 (7 months ago)
Launch vehicle
FALCON 9
Launch site
Air Force Western Test Range (AFWTR)
Object type
Payload
Rocket body
Debris
Radar Cross SectionMedium (>0.1 m² and <1 m²)

Expand to show TLE details & history

TLE from 6 hours ago
0 VSP RF A1
1 59135U 24043AP  24261.63048400  .00022354  00000-0  10410-2 0  9990
2 59135  97.4882  24.6073 0011890 323.2910  36.7509 15.19862299 29849
Epoch: 2024-09-17T15:07Z
Definitive object data (Epoch: 2024-09-17T15:07:53.817Z)
Latitude-0.00006°
Longitude160.59069°
Altitude502.788 km
Speed7.617 km/s
True Right ascension01h 38m 25s
True Declination0° 00' 00"
Sunlit
Object was in full shadow at TLE epoch
Predictive object data (real-time)
Latitude32.5759°
Longitude156.06694°
Altitude507.801 km
Speed7.615 km/s
Apparent Right ascension01h 49m 39s
Apparent Declination-2° 04' 08"
Sunlit
Object is in full shadow
Predictive observer data (real-time)
Local Sidereal Time14:24:28
Azimuth14.007° NNE
Elevation-51.336°
Doppler factor1
Orbital elements
Apogee511.408 km
Perigee495.044 km
Semi-major axis6,881.363 km
Eccentricity0.001189
Inclination97.4882°
RAAN24.6073°
Arg. of periapsis323.291°
True anomaly36.83252°
Mean anomaly36.7509°
Eccentric anomaly36.7917°
Mean motion3.80217 °/min
BSTAR0.001041
Period94.68 mins
No data available

VSP RF A1 Visibility forecast

Observer location: 39.9160978°, -105.1181434

VSP RF A1 is not visible in the next 10 days
Span
Click to sort rows by Start time (UTC) header in descending order
Start Az.
Max El. time (UTC)
Max El. Az.
Max El.
End time (UTC)
End Az.